NIMBUS 2 DEB, 31142

Orbit data source: Space-Track

NIMBUS 2 DEB, 31142 is space debris in SSO originally from a launch on Sun, 15 May 1966 UTC launched from the Air Force Western Test Range (AFWTR). Debris objects in space refer to the collection of defunct objects orbiting the Earth. Examples of debris include non-operational satellites, rocket bodies, and fragments generated from explosions, collisions, or faulty payload assembly.

Loading next visibility...
Identifier
31142, 1966-040AQ
Orbit
SSO
Country
Flag of USUS
Related business
Manufacturer
Unknown
Mission
Spacecraft
Bus & Motor
Unknown
Mass
Unknown
Launch date (UTC)
1966-05-15 (59 years ago)
Launch vehicle
Unknown
Launch site
Air Force Western Test Range (AFWTR)
Object type
Payload
Rocket body
Debris
Shape & HBR
Unknown shape, 0.1 m
Radar Cross Section
Small (<0.1 m²)

Expand to show TLE details & history
Last TLE update: 15 hours ago

TLE from 15 hours ago
0 NIMBUS 2 DEB
1 31142U 66040AQ  25286.80987351  .00002009  00000-0  32040-2 0  9993
2 31142 100.6084 289.5563 0058406  46.8052 131.1162 13.49969347909613
Epoch: 2025-10-13T19:26Z
TLE epoch observation values (Epoch: 2025-10-13T19:26:13.071Z)
Latitude
1.44749°
Longitude
155.6643°
Altitude
1,103.712 km
Speed
7.287 km/s
True Right ascension
07h 19m 18s
True Declination
1° 26' 21"
Sunlit
Object was in daylight at epoch
Visualization orbit readout
Latitude
Unknown
Longitude
Unknown
Altitude
Unknown
Speed
Unknown
Apparent Right ascension
Unknown
Apparent Declination
Unknown
Sunlit
N/A
Visualization observer readout
Local Sidereal Time
04:42:01
Azimuth
Unknown
Elevation
Unknown
Doppler factor
Unknown
Orbital elements
Apogee altitude
1,113.221 km
Perigee altitude
1,026.221 km
Semi-major axis
7,447.858 km
Eccentricity
0.00584
Inclination
100.6084°
RAAN
289.5563°
Arg. of periapsis
46.8052°
True anomaly
131.61801°
Mean anomaly
131.1162°
Eccentric anomaly
131.36734°
Mean motion
3.37673 °/min
Orbital period
106.61 mins
BSTAR
0.003204
Loading maneuver chart data...
Computing Atmospheric mass density...
Loading historical data...
Loading historical data...
Loading historical data...
Loading historical data...
Loading historical data...
Loading historical data...
Loading historical data...

Documentation

Showing up to 5 results
|